Regional Weather Roundup
Issued by NWS

Home | Current Version | Previous Version | Text Only | Print | Product List | Glossary On
Versions: 1 2 3 4 5 6 7 8 9 10 11 12 13 14 15 16 17 18 19 20 21 22 23 24 25 26 27 28 29 30 31 32 33 34 35 36 37 38 39 40 41 42 43 44 45 46 47 48 49 50
000
ASCA44 KEWX 190920
RWRMX

LATIN AMERICA AND CARIBBEAN REGIONAL WEATHER ROUNDUP
NATIONAL WEATHER SERVICE AUSTIN/SAN ANTONIO TX
400 AM CDT SUN APR 19 2015

NOTE: "FAIR" INDICATED FEW OR NO CLOUDS BELOW 12,000 FEET WITH NO
SIGNIFICANT WEATHER AND/OR OBSTRUCTIONS TO VISIBILITY.

BAJA CALIFORNIA

CITY           SKY/WX    TMP DP  RH WIND       PRES   REMARKS
TIJUANA        CLEAR     57  52  82 CALM      29.99S

NORTHWESTERN MEXICO

CITY           SKY/WX    TMP DP  RH WIND       PRES   REMARKS

NORTHEASTERN MEXICO

CITY           SKY/WX    TMP DP  RH WIND       PRES   REMARKS
MONTERREY      CLEAR     68  64  88 CALM      29.78F
REYNOSA          N/A     70  68  94 S3        29.77F FOG
CD. VICTORIA   PTCLDY    72  70  94 CALM      29.79

WESTERN MEXICO

CITY           SKY/WX    TMP DP  RH WIND       PRES   REMARKS
AGUASCALIENTES CLEAR     52  39  62 S6        30.15F
GUADALAJARA    CLEAR     57  45  62 E3        30.11S
MAZATLAN       PTCLDY    61  57  88 NE7       29.84F
P. VALLARTA    CLEAR     73  70  88 NE2       29.85

CENTRAL MEXICO

CITY           SKY/WX    TMP DP  RH WIND       PRES   REMARKS
MEXICO CITY    CLEAR     63  41  45 SE5       30.21
MORELIA        CLEAR     55  43  62 CALM      30.14F
QUERETARO      PTCLDY    55  43  62 N6        30.19S
S. LUIS POTOSI CLEAR     55  48  76 CALM      30.12S
TOLUCA         PTCLDY    45  36  70 E3        30.30F

SOUTHERN MEXICO

CITY           SKY/WX    TMP DP  RH WIND       PRES   REMARKS
ACAPULCO       CLEAR     73  72  94 CALM      29.84F

YUCATAN PENINSULA

CITY           SKY/WX    TMP DP  RH WIND       PRES   REMARKS
CANCUN         PTCLDY    79  72  78 SE13      29.87F
COZUMEL        PTCLDY    73  72  94 SE6       29.87S
MERIDA         CLEAR     79  72  78 SE12      29.81F
TAPACHULA      MOCLDY    79  75  89 CALM      29.85F

CENTRAL AMERICA

CITY           SKY/WX    TMP DP  RH WIND       PRES   REMARKS
MANAGUA        MOSUNNY   79  72  78 E7        29.83S

CARIBBEAN

CITY           SKY/WX    TMP DP  RH WIND       PRES   REMARKS
ARUBA          PTCLDY    81  73  78 E20       29.83S
KINGSTON       PTCLDY    79  70  73 N5        29.92S
SAN JUAN       CLEAR     77  73  88 CALM      29.99R
SANTO DOMINGO  PTCLDY    73  70  88 NE6       29.97S
ST. MAARTEN    PTCLDY    79  72  78 E10       30.00R

$$



USA.gov is the U.S. government's official web portal to all federal, state and local government web resources and services.